Gainesville, GA

6:03 AM EDT on March 29, 2017 (GMT -0400)
Gilmer Memorial

Weather History for KGVL - September, 2014

Change the Weather History Date:

Thursday, September 18, 2014

  Actual Average Record
Temperature  
Mean Temperature 73 °F 71 °F  
Max Temperature 81 °F 80 °F 101 °F (1931)
Min Temperature 65 °F 62 °F 49 °F (1981)
Degree Days  
Heating Degree Days 0 0  
Month to date heating degree days 0 0  
Since 1 July heating degree days 0 0  
Cooling Degree Days 8 6  
Month to date cooling degree days 209 160  
Year to date cooling degree days 1556 1486  
Growing Degree Days 23 (Base 50)    
Moisture  
Dew Point 63 °F    
Average Humidity 72    
Maximum Humidity 93    
Minimum Humidity 51    
Precipitation  
Precipitation 0.00 in 0.16 in 3.47 in (1975)
Month to date precipitation 4.12 2.80  
Year to date precipitation 32.91 39.05  
Sea Level Pressure  
Sea Level Pressure 29.98 in    
Wind  
Wind Speed 3 mph (East)    
Max Wind Speed 9 mph    
Max Gust Speed 13 mph    
Visibility 9 miles    
Events      
T = Trace of Precipitation, MM = Missing Value Source: NWS Daily Summary

Daily Weather History Graph

Daily Weather History Graph

Search for Another Location

Airport or City:

Trip Planner

Search our weather history database for the weather conditions in past years. The results will help you decide how hot, cold, wet, or windy it might be!

Date:

Astronomy

Sep. 18, 2014 Rise Set
Actual Time 7:20 AM EDT 7:37 PM EDT
Civil Twilight 6:55 AM EDT 8:02 PM EDT
Nautical Twilight 6:26 AM EDT 8:32 PM EDT
Astronomical Twilight 5:56 AM EDT 9:01 PM EDT
Moon 2:21 AM EDT (9/18) 4:18 PM EDT (9/18)
Length of Visible Light 13h 07m
Length of Day
12h 17m
Waning Crescent, 26% of the Moon is Illuminated
Sep 18
Waning Crescent
Sep 24
New
Oct 1
First Quarter
Oct 8
Full
Oct 15
Last Quarter

Hourly Weather History & Observations

Time (EDT) Temp. Heat Index Dew Point Humidity Pressure Visibility Wind Dir Wind Speed Gust Speed Precip Events Conditions
12:20 AM 66.0 °F - 62.1 °F 87% 29.99 in 10.0 mi East 9.2 mph - N/A   Mostly Cloudy
12:53 AM 66.0 °F - 64.0 °F 93% 29.96 in 9.0 mi East 8.1 mph - N/A   Overcast
1:32 AM 66.0 °F - 64.9 °F 96% 30.00 in 7.0 mi East 5.8 mph - N/A   Overcast
1:53 AM 66.0 °F - 64.9 °F 96% 29.95 in 6.0 mi ESE 3.5 mph - N/A   Overcast
2:24 AM 66.0 °F - 64.9 °F 96% 29.99 in 5.0 mi East 5.8 mph - N/A   Overcast
2:53 AM 66.0 °F - 64.9 °F 96% 29.95 in 5.0 mi ENE 3.5 mph - N/A   Overcast
3:15 AM 66.9 °F - 64.9 °F 93% 29.98 in 6.0 mi East 4.6 mph - N/A   Overcast
3:48 AM 66.2 °F - 64.4 °F 94% 29.97 in 5.0 mi NE 4.6 mph - N/A   Overcast
3:53 AM 66.9 °F - 64.9 °F 93% 29.93 in 5.0 mi NE 4.6 mph - N/A   Overcast
4:20 AM 66.9 °F - 64.9 °F 93% 29.97 in 5.0 mi NE 4.6 mph - N/A   Overcast
4:29 AM 66.9 °F - 64.9 °F 93% 29.96 in 5.0 mi ENE 5.8 mph - N/A   Overcast
4:41 AM 66.0 °F - 64.9 °F 96% 29.97 in 5.0 mi NNE 3.5 mph - N/A   Overcast
5:41 AM 68.0 °F - 64.0 °F 87% 29.98 in 8.0 mi NNE 3.5 mph - N/A   Overcast
5:53 AM 66.9 °F - 64.0 °F 90% 29.95 in 9.0 mi NNW 5.8 mph - N/A   Overcast
6:13 AM 68.0 °F - 63.0 °F 84% 29.99 in 10.0 mi North 3.5 mph - N/A   Overcast
6:21 AM 66.9 °F - 63.0 °F 87% 29.99 in 10.0 mi ENE 3.5 mph - N/A   Overcast
6:53 AM 68.0 °F - 64.0 °F 87% 29.95 in 10.0 mi Calm Calm - N/A   Overcast
7:22 AM 66.9 °F - 64.0 °F 90% 30.00 in 8.0 mi Calm Calm - N/A   Overcast
7:44 AM 66.0 °F - 63.0 °F 90% 30.01 in 7.0 mi Calm Calm - N/A   Scattered Clouds
8:53 AM 70.0 °F - 63.0 °F 78% 29.99 in 10.0 mi NNE 3.5 mph - N/A   Clear
9:53 AM 72.0 °F - 63.0 °F 73% 29.99 in 10.0 mi NNE 4.6 mph - N/A   Clear
10:36 AM 73.0 °F - 63.0 °F 71% 30.04 in 10.0 mi East 5.8 mph - N/A   Mostly Cloudy
10:53 AM 72.0 °F - 62.1 °F 71% 30.01 in 10.0 mi East 3.5 mph - N/A   Scattered Clouds
11:44 AM 73.0 °F - 62.1 °F 68% 30.05 in 10.0 mi ESE 4.6 mph - N/A   Mostly Cloudy
11:53 AM 75.0 °F - 61.0 °F 62% 30.01 in 10.0 mi Calm Calm - N/A   Mostly Cloudy
12:20 PM 75.9 °F - 62.1 °F 62% 30.04 in 10.0 mi Variable 3.5 mph - N/A   Scattered Clouds
12:53 PM 75.9 °F - 61.0 °F 60% 30.00 in 10.0 mi ESE 4.6 mph - N/A   Scattered Clouds
1:53 PM 77.0 °F - 61.0 °F 58% 29.98 in 10.0 mi Calm Calm - N/A   Partly Cloudy
2:53 PM 78.1 °F - 61.0 °F 56% 29.96 in 10.0 mi South 4.6 mph - N/A   Mostly Cloudy
3:53 PM 80.1 °F 81.1 °F 61.0 °F 52% 29.94 in 10.0 mi South 4.6 mph - N/A   Clear
4:53 PM 79.0 °F - 61.0 °F 54% 29.94 in 10.0 mi ESE 5.8 mph - N/A   Mostly Cloudy
5:53 PM 79.0 °F - 61.0 °F 54% 29.94 in 10.0 mi SE 5.8 mph - N/A   Scattered Clouds
6:53 PM 77.0 °F - 63.0 °F 62% 29.94 in 10.0 mi SSE 4.6 mph - N/A   Clear
7:53 PM 73.9 °F - 63.0 °F 68% 29.96 in 10.0 mi South 3.5 mph - N/A   Scattered Clouds
8:53 PM 73.0 °F - 62.1 °F 68% 29.97 in 10.0 mi Calm Calm - N/A   Clear
9:53 PM 71.1 °F - 63.0 °F 75% 29.99 in 10.0 mi SE 4.6 mph - N/A   Clear
10:53 PM 70.0 °F - 64.0 °F 81% 30.01 in 10.0 mi Calm Calm - N/A   Clear
11:53 PM 70.0 °F - 64.9 °F 84% 30.02 in 10.0 mi ENE 4.6 mph - N/A   Mostly Cloudy